EW3827 Weather Reports


time (UTC)temp
C
wind
direction
speed
KPH
gust
KPH
rain 1hr
cm
rain 24hr
cm
rain mn
cm
humidity
%
barometer
mb
20260510022510 11 0 0.0 0.0 0.00 0.05 0.05 90 1010.7
20260510022011 11 0 0.0 0.0 0.00 0.05 0.05 90 1010.7
20260510021511 11 0 0.0 0.0 0.00 0.05 0.05 89 1010.7
20260510021011 11 0 0.0 0.0 0.00 0.05 0.05 89 1010.6
20260510020511 11 95 0.0 1.6 0.00 0.05 0.05 89 1010.6
20260510020010 11 95 0.0 1.6 0.00 0.05 0.05 89 1010.5
20260510015511 11 95 0.0 1.6 0.00 0.05 0.05 89 1010.6
20260510015011 11 0 0.0 0.0 0.00 0.05 0.05 88 1010.6
20260510014512 11 0 0.0 0.0 0.00 0.05 0.05 88 1010.6
20260510014011 11 0 0.0 0.0 0.00 0.05 0.05 88 1010.6
20260510013511 11 0 0.0 0.0 0.00 0.05 0.05 88 1010.6
20260510013011 11 0 0.0 0.0 0.00 0.05 0.05 88 1010.6
20260510012511 11 0 0.0 0.0 0.00 0.05 0.05 88 1010.6
20260510012011 12 95 0.0 1.6 0.00 0.05 0.05 88 1010.6
20260510011511 12 95 0.0 1.6 0.00 0.05 0.05 88 1010.6
20260510011011 12 0 0.0 0.0 0.00 0.05 0.05 87 1010.5
20260510010511 12 0 0.0 0.0 0.00 0.05 0.05 87 1010.4
20260510010011 12 0 0.0 0.0 0.00 0.05 0.05 86 1010.3
20260510005510 12 95 0.0 1.6 0.00 0.05 0.05 87 1010.3
20260510005011 12 95 0.0 1.6 0.00 0.05 0.05 86 1010.3
20260510004511 12 95 0.0 1.6 0.00 0.05 0.05 86 1010.4
20260510003511 12 0 0.0 0.0 0.00 0.05 0.05 85 1010.4
20260510003011 13 0 0.0 0.0 0.00 0.05 0.05 85 1010.3
20260510002511 13 0 0.0 0.0 0.00 0.05 0.05 84 1010.3
20260510002010 13 0 0.0 0.0 0.00 0.05 0.05 84 1010.2
20260510001511 13 94 0.0 1.6 0.00 0.05 0.05 84 1010.2
20260510000510 13 95 0.0 3.2 0.00 0.05 0.05 82 1010.2
20260510000011 14 95 0.0 1.6 0.00 0.05 0.05 82 1010.3
20260509235510 14 95 0.0 1.6 0.00 0.05 0.05 81 1010.2
20260509235011 14 82 0.0 4.8 0.00 0.05 0.05 81 1010.3
20260509234511 14 64 1.6 4.8 0.00 0.05 0.05 80 1010.2
20260509234012 15 53 1.6 3.2 0.00 0.05 0.05 80 1010.1
20260509233510 15 62 1.6 4.8 0.00 0.05 0.05 79 1010.1
20260509232010 15 78 3.2 8.0 0.00 0.05 0.05 79 1009.8
20260509231511 15 80 4.8 8.0 0.00 0.05 0.05 79 1009.7
20260509230511 15 80 3.2 6.4 0.00 0.05 0.05 80 1009.8
20260509230010 15 68 3.2 6.4 0.00 0.05 0.05 80 1009.9
20260509225512 15 47 3.2 9.7 0.00 0.05 0.05 80 1009.9
20260509225011 15 46 3.2 9.7 0.00 0.05 0.05 80 1010.0
20260509224510 15 45 3.2 8.0 0.00 0.05 0.05 79 1010.1
20260509224011 15 27 3.2 6.4 0.00 0.05 0.05 80 1010.1
20260509223511 15 27 3.2 6.4 0.00 0.05 0.05 81 1010.1
20260509223011 15 50 3.2 6.4 0.00 0.05 0.05 80 1010.2
20260509222511 15 68 3.2 8.0 0.00 0.05 0.05 80 1010.1
20260509222011 15 50 3.2 9.7 0.00 0.05 0.05 80 1010.0
20260509221511 15 33 3.2 9.7 0.00 0.05 0.05 79 1010.0
20260509221011 15 45 3.2 9.7 0.00 0.05 0.05 79 1010.2
20260509220011 15 19 6.4 12.9 0.00 0.05 0.05 78 1010.4
20260509215511 15 25 6.4 12.9 0.00 0.05 0.05 77 1010.5
20260509214513 15 18 4.8 12.9 0.00 0.05 0.05 77 1010.4
20260509214011 15 8 8.0 16.1 0.00 0.05 0.05 75 1010.2
20260509213511 16 359 9.7 16.1 0.00 0.05 0.05 73 1010.5
20260509212510 16 346 6.4 16.1 0.00 0.05 0.05 70 1010.7
20260509212011 16 353 4.8 9.7 0.00 0.05 0.05 69 1010.5
20260509211510 16 351 6.4 11.3 0.00 0.05 0.05 69 1010.4
20260509211012 16 354 4.8 11.3 0.00 0.05 0.05 70 1010.4
20260509210511 16 21 3.2 8.0 0.00 0.05 0.05 70 1010.3
20260509210011 16 28 3.2 9.7 0.00 0.05 0.05 70 1010.3
20260509205511 16 14 4.8 12.9 0.00 0.05 0.05 70 1010.4
20260509205010 16 352 4.8 12.9 0.00 0.05 0.05 71 1010.3